Flag for Mexico Weather past 2 weeks in Guadalajara, Jalisco, Mexico

Now
77 °F

Passing clouds.


Feels Like: 78 °F
Forecast: N/A
Wind: 5 mph from East

Location: Don Miguel / Guadalaj

Current Time: Oct 25, 2014 at 6:44:44 PM

Latest Report: Oct 25, 2014 at 5:46 PM


Visibility: 10 mi

Pressure: 30.18 "Hg

Humidity: 34%

Dew point: 46 °F

Location of GuadalajaraLocation

Historic Weather in Guadalajara — Graph

°F

Guadalajara temperature yesterday

Maximum temperature yesterday: 81 °F (at 2:51 PM)
Minimum temperature yesterday: 57 °F (at 5:59 AM)
Average temperature yesterday: 69 °F

Past Weeks' High & Low Weather Summary

 TemperatureHumidityPressure
High82 °F (Oct 14, 4:49 PM)94% (Oct 11, 3:50 AM)30.34 "Hg (Oct 11, 3:50 AM)
Low50 °F (Oct 16, 7:49 AM)17% (Oct 17, 5:49 PM)29.62 "Hg (Oct 21, 3:51 PM)
Average68 °F68%30.03 "Hg
* Reported Oct 10 5:46 PM — Oct 25 5:46 PM, Guadalajara, Weather by CustomWeather, © 2014

Note: Actual official high and low records may vary slightly from our data, if they occured in-between our weather recording intervals... More about our weather records

Advertising

Guadalajara weather history for previous 24 hours

 ConditionsComfort  
Time TempWeatherWind HumidityBarometerVisibility
5:46 PM
Oct 25
77 °FPassing clouds.5 mph34%30.18 "Hg10 mi
4:46 PM79 °FPassing clouds.5 mph32%30.19 "Hg10 mi
3:43 PM77 °FPassing clouds.8 mph39%29.88 "Hg10 mi
1:54 PM75 °FScattered clouds.No wind41%30.26 "Hg10 mi
12:54 PM75 °FScattered clouds.9 mph41%29.94 "Hg10 mi
11:49 AM72 °FSunny.6 mph50%30.33 "Hg10 mi
10:46 AM68 °FSunny.6 mph56%30.34 "Hg10 mi
9:50 AM64 °FSunny.7 mph64%30.07 "Hg10 mi
8:51 AM61 °FPassing clouds.No wind68%30.31 "Hg10 mi
7:53 AM55 °FPassing clouds.3 mph82%30.29 "Hg10 mi
5:51 AM57 °FPassing clouds.7 mph77%30.26 "Hg10 mi
4:48 AM57 °FPassing clouds.No wind77%30.26 "Hg10 mi
3:49 AM57 °FPassing clouds.No wind82%29.93 "Hg10 mi
2:45 AM59 °FPassing clouds.No wind82%30.25 "Hg10 mi
1:48 AM63 °FPassing clouds.No wind73%30.25 "Hg10 mi
9:49 PM
Oct 24
64 °FClear.No wind73%29.92 "Hg10 mi
8:48 PM66 °FClear.No wind68%30.19 "Hg10 mi
7:45 PM81 °FSunny.3 mph37%30.16 "Hg10 mi
6:49 PM79 °FSunny.6 mph39%29.83 "Hg10 mi
Weather by CustomWeather, © 2014

See weather overviewHow to use our weather pages